{"data":{"norad_id":28474,"epoch":"2026-05-25T03:00:17.959104Z","epoch_age_seconds":78316,"freshness":"FRESH","line1":"1 28474U 04045A   26145.12520786 -.00000085  00000+0  00000+0 0  9999","line2":"2 28474  55.1499 325.8245 0169829 315.8216 230.8653  2.00554871157967","mean_motion":2.00554871,"eccentricity":0.0169829,"inclination_deg":55.1499,"raan_deg":325.8245,"arg_perigee_deg":315.8216,"mean_anomaly_deg":230.8653,"bstar":0,"rev_number":15796,"period_min":718.00799094029,"perigee_km":19731.897019333,"apogee_km":20634.066669784,"semimajor_km":26561.118844558,"source":"CELESTRAK","updated_at":"2026-05-25T13:38:23.727943Z"}}